Regional Weather Roundup
Issued by NWS

Home | Current Version | Previous Version | Graphics & Text | Print | Product List | Glossary On
Versions: 1 2 3 4 5 6 7 8 9 10 11 12 13 14 15 16 17 18 19 20 21 22 23 24 25 26 27 28 29 30 31 32 33 34 35 36 37 38 39 40 41 42 43 44 45 46 47 48 49 50
000
ASUS45 KBOU 300110
RWRCO

WEATHER ROUNDUP FOR COLORADO
NATIONAL WEATHER SERVICE PUEBLO CO
700 PM MDT WED JUL 29 2015

NOTE: "FAIR" INDICATES FEW OR NO CLOUDS BELOW 12000 FEET WITH NO
SIGNIFICANT WEATHER AND/OR OBSTRUCTIONS TO VISIBILITY.

COZ001>005-013-030-031-300200-
...NORTHWEST COLORADO...

CITY           SKY/WX    TMP DP  RH WIND       PRES   REMARKS
CRAIG          SUNNY     83  18   9 NW6       30.29S
HAYDEN         SUNNY     81  19  10 W7        30.32R
MEEKER         MOSUNNY   83  17   8 N10       30.30S
MOUNT WERNER   NOT AVBL
STEAMBOAT SPGS FAIR      79  20  11 W3        30.34S
WALDEN         FAIR      73  18  12 SE3       30.43S
$$

COZ006>008-011-300200-
...WEST CENTRAL VALLEYS...

CITY           SKY/WX    TMP DP  RH WIND       PRES   REMARKS
GRAND JUNCTION MOSUNNY   88  24  10 W6        30.14S
MONTROSE       MOSUNNY   87  30  13 NW13      30.23S
EAGLE          MOSUNNY   82  25  12 S10       30.30R
RIFLE          MOSUNNY   88  26  10 N8        30.20R
DELTA          NOT AVBL
NUCLA          FAIR      86  23  10 NW10      30.26R
$$

COZ017>023-064>068-300200-
...SOUTHWEST COLORADO...

CITY           SKY/WX    TMP DP  RH WIND       PRES   REMARKS
DURANGO        CLOUDY    71  49  45 NE6       30.33S
CORTEZ         SUNNY     83  42  23 S9        30.25R
PAGOSA SPRINGS CLOUDY    68  43  40 CALM      30.42S
TELLURIDE      PTSUNNY   72  22  15 NW6       30.51R
WOLF CREEK PAS NOT AVBL
$$

COZ009-010-012-014-032>034-037-058>063-300200-
...CENTRAL COLORADO...

CITY           SKY/WX    TMP DP  RH WIND       PRES   REMARKS
ASPEN          MOSUNNY   76  29  17 NW10G18   30.39R
BUENA VISTA    FAIR      73  48  42 E9G18     30.41R
COPPER MTN     MOSUNNY   61  18  18 W20       30.74R
BERTHOUD PASS  PTSUNNY   46  36  66 E15G21    30.79R
COTTONWOOD PAS MOSUNNY   68  48  49 SE18G25   30.54R
GUNNISON       MOSUNNY   79  27  14 W6        30.39R
KREMMLING      MOSUNNY   77  16  10 N13G18    30.38R
LEADVILLE      MOSUNNY   67  24  19 N12G20    30.54R
MONARCH PASS   MOSUNNY   54  45  71 E9        30.83R
SALIDA         FAIR      73  50  43 SE17G28   30.45R
NIWOT RIDGE    NOT AVBL
SUNLIGHT       MOSUNNY   64  32  29 CALM      30.67S
WILKERSON PASS PTSUNNY   50  45  81 S12G20    30.71S
$$

COZ069>075-300200-
...SAN LUIS VALLEY/SANGRE DE CRISTO MOUNTAINS...

CITY           SKY/WX    TMP DP  RH WIND       PRES   REMARKS
ALAMOSA        PTSUNNY   65  51  60 SE18      30.43R
LA VETA PASS   CLOUDY    52  43  71 MISG      30.64R
SAGUACHE       PTSUNNY   70  50  49 S14G21    30.42R
$$

COZ035-036-038>040-300200-
...NORTHERN COLORADO FRONT RANGE...

CITY           SKY/WX    TMP DP  RH WIND       PRES   REMARKS
DENVER INTL AP PTSUNNY   83  47  28 S20       30.25R
DMNS CITY PARK NOT AVBL
AURORA         PTSUNNY   79  51  36 S16       30.27S
FRONT RANGE AP PTSUNNY   81  46  30 SE17G23   30.28
ERIE MUNI ARPT PTSUNNY   83  45  26 SE5       30.21S
BOULDER MUN AP PTSUNNY   82  48  30 SE6       30.22S
CENTENNIAL     PTSUNNY   77  51  40 S16G23    30.28S
BROOMFIELD     PTSUNNY   81  50  34 S10G17    30.26R
LOVELAND       MOSUNNY   82  48  30 E14       30.20R
LONGMONT       FAIR      86  47  25 SE6       30.22R
$$

COZ041-046-047-076>085-087-088-300200-
...PIKES PEAK/PALMER DIVIDE AND SOUTHERN FOOTHILLS...

CITY           SKY/WX    TMP DP  RH WIND       PRES   REMARKS
COLO. SPRINGS  LGT RAIN  76  47  35 SE7       30.37R
A. F. ACADEMY  MOSUNNY   69  51  52 SW10      30.37R
ELLICOTT       FAIR     N/A N/A N/A SE8       30.36R
FALCON         FAIR      71  49  45 S8        30.42S
FORT CARSON    CLOUDY    78  50  37 SE8       30.33R
LIMON          SUNNY     74  46  36 SE10      30.31R
MONUMENT HILL  NOT AVBL
TRINIDAD       LGT RAIN  62  58  86 W16       30.36S
$$

COZ042>045-048>051-090-091-300200-
...NORTHEAST COLORADO...

CITY           SKY/WX    TMP DP  RH WIND       PRES   REMARKS
GREELEY ARPT   MOSUNNY   82  48  30 SE12      30.22R
AKRON          SUNNY     78  42  27 SE16      30.27R
BURLINGTON     SUNNY     77  48  35 SE13      30.27R
WRAY           FAIR      80  40  23 SE10      30.24R
STERLING       FAIR      81  48  32 S12       30.21R
HOLYOKE        FAIR      81  45  28 SE10      30.24R
FORT MORGAN    FAIR      78  47  34 SE8       30.24R
$$

COZ086-089-092>099-300200-
...SOUTHEAST COLORADO...

CITY           SKY/WX    TMP DP  RH WIND       PRES   REMARKS
PUEBLO         PTSUNNY   84  50  30 SE15      30.23R
LA JUNTA       PTSUNNY   85  50  29 SE14      30.22R
LAMAR          MOSUNNY   81  56  42 E9        30.20R
SPRINGFIELD      N/A     78  56  46 E12       30.25R
$$



USA.gov is the U.S. government's official web portal to all federal, state and local government web resources and services.